TimeCET,TemperatureF,Dew PointF,Humidity,Sea Level PressureIn,VisibilityMPH,Wind Direction,Wind SpeedMPH,Gust SpeedMPH,PrecipitationIn,Events,Conditions,WindDirDegrees,DateUTC
12:15 AM,53.6,41.0,62,29.71,6.2,North,4.6,-,N/A,,Mostly Cloudy,350,2013-12-01 23:15:00
12:45 AM,53.6,41.0,62,29.71,6.2,North,10.4,-,N/A,,Mostly Cloudy,10,2013-12-01 23:45:00
1:15 AM,53.6,41.0,62,29.71,6.2,North,5.8,-,N/A,,Mostly Cloudy,360,2013-12-02 00:15:00
1:45 AM,53.6,42.8,67,29.71,6.2,North,4.6,-,N/A,,Scattered Clouds,10,2013-12-02 00:45:00
2:15 AM,53.6,42.8,67,29.71,6.2,North,5.8,-,N/A,,Scattered Clouds,10,2013-12-02 01:15:00
2:45 AM,55.4,42.8,63,29.71,6.2,North,10.4,-,N/A,,Scattered Clouds,10,2013-12-02 01:45:00
3:15 AM,55.4,42.8,63,29.71,6.2,North,3.5,-,N/A,,Scattered Clouds,10,2013-12-02 02:15:00
3:45 AM,55.4,44.6,67,29.74,6.2,NNE,6.9,-,N/A,,Scattered Clouds,30,2013-12-02 02:45:00
4:15 AM,55.4,44.6,67,29.74,6.2,NE,5.8,-,N/A,,Scattered Clouds,50,2013-12-02 03:15:00
4:45 AM,55.4,42.8,63,29.74,6.2,SW,2.3,-,N/A,Rain,Light Rain,230,2013-12-02 03:45:00
5:15 AM,53.6,44.6,72,29.74,6.2,SSE,1.2,-,N/A,Rain,Light Rain,150,2013-12-02 04:15:00
5:45 AM,51.8,46.4,82,29.77,6.2,NNW,3.5,-,N/A,Rain,Light Rain,330,2013-12-02 04:45:00
6:15 AM,51.8,46.4,82,29.77,6.2,NNE,8.1,-,N/A,Rain,Light Rain,30,2013-12-02 05:15:00
6:45 AM,51.8,44.6,76,29.77,6.2,NE,10.4,-,N/A,,Scattered Clouds,40,2013-12-02 05:45:00
7:15 AM,51.8,44.6,76,29.77,6.2,NNE,10.4,-,N/A,,Scattered Clouds,30,2013-12-02 06:15:00
7:45 AM,51.8,44.6,76,29.80,6.2,NE,4.6,-,N/A,,Scattered Clouds,40,2013-12-02 06:45:00
8:15 AM,53.6,46.4,77,29.80,6.2,ENE,5.8,-,N/A,,Scattered Clouds,60,2013-12-02 07:15:00
8:45 AM,53.6,46.4,77,29.83,6.2,NE,4.6,-,N/A,,Partly Cloudy,50,2013-12-02 07:45:00
9:15 AM,53.6,46.4,77,29.83,6.2,NE,2.3,-,N/A,,Partly Cloudy,50,2013-12-02 08:15:00
9:45 AM,55.4,48.2,77,29.86,6.2,NE,3.5,-,N/A,,Partly Cloudy,40,2013-12-02 08:45:00
10:15 AM,57.2,46.4,67,29.86,6.2,NNE,6.9,-,N/A,,Partly Cloudy,30,2013-12-02 09:15:00
10:45 AM,59.0,48.2,67,29.89,6.2,NNE,5.8,-,N/A,,Partly Cloudy,30,2013-12-02 09:45:00
11:15 AM,59.0,48.2,67,29.89,6.2,NNE,6.9,-,N/A,,Scattered Clouds,30,2013-12-02 10:15:00
11:45 AM,60.8,48.2,63,29.89,6.2,NNE,5.8,-,N/A,,Partly Cloudy,30,2013-12-02 10:45:00
12:15 PM,62.6,50.0,63,29.89,6.2,NE,4.6,-,N/A,,Partly Cloudy,50,2013-12-02 11:15:00
12:45 PM,62.6,48.2,59,29.89,6.2,East,2.3,-,N/A,,Partly Cloudy,90,2013-12-02 11:45:00
1:15 PM,64.4,55.4,73,29.89,6.2,SSE,18.4,-,N/A,,Partly Cloudy,160,2013-12-02 12:15:00
1:45 PM,62.6,53.6,72,29.89,6.2,SSE,21.9,-,N/A,,Scattered Clouds,150,2013-12-02 12:45:00
2:15 PM,60.8,55.4,82,29.92,6.2,SE,20.7,-,N/A,,Scattered Clouds,140,2013-12-02 13:15:00
2:45 PM,59.0,55.4,88,29.92,6.2,ESE,8.1,-,N/A,,Scattered Clouds,120,2013-12-02 13:45:00
3:15 PM,59.0,51.8,77,29.95,6.2,ESE,10.4,-,N/A,,Scattered Clouds,110,2013-12-02 14:15:00
3:45 PM,59.0,50.0,72,29.95,6.2,ESE,10.4,-,N/A,,Scattered Clouds,110,2013-12-02 14:45:00
4:15 PM,59.0,50.0,72,29.98,6.2,NE,3.5,-,N/A,,Scattered Clouds,40,2013-12-02 15:15:00
4:45 PM,59.0,50.0,72,29.98,6.2,ESE,2.3,-,N/A,,Scattered Clouds,120,2013-12-02 15:45:00
5:15 PM,59.0,50.0,72,29.98,6.2,NNW,9.2,-,N/A,,Scattered Clouds,330,2013-12-02 16:15:00
5:45 PM,57.2,50.0,77,30.01,6.2,NNW,3.5,-,N/A,,Scattered Clouds,340,2013-12-02 16:45:00
6:15 PM,57.2,51.8,82,30.01,6.2,ENE,8.1,-,N/A,,Partly Cloudy,70,2013-12-02 17:15:00
6:45 PM,55.4,51.8,88,30.04,6.2,North,5.8,-,N/A,,Scattered Clouds,10,2013-12-02 17:45:00
8:45 PM,51.8,46.4,82,30.06,6.2,North,4.6,-,N/A,,Scattered Clouds,10,2013-12-02 19:45:00
9:45 PM,51.8,46.4,82,30.09,6.2,North,3.5,-,N/A,,Partly Cloudy,10,2013-12-02 20:45:00
10:15 PM,51.8,46.4,82,30.09,6.2,North,3.5,-,N/A,,Partly Cloudy,10,2013-12-02 21:15:00
10:45 PM,51.8,44.6,76,30.09,6.2,NNE,3.5,-,N/A,,Scattered Clouds,20,2013-12-02 21:45:00
11:15 PM,51.8,44.6,76,30.09,6.2,NNE,3.5,-,N/A,,Scattered Clouds,20,2013-12-02 22:15:00
11:45 PM,51.8,44.6,76,30.09,6.2,NW,2.3,-,N/A,,Partly Cloudy,310,2013-12-02 22:45:00